Flag for Germany Weather past 2 weeks in Wiesbaden, Hesse, Germany

Now
72 °F

Sunny.


Feels Like: 75 °F
Forecast: 58 / 74 °F
Wind: 6 mph from East

Location: Wiesbaden Airport

Current Time: Sep 17, 2014 at 1:44:50 PM

Latest Report: Sep 17, 2014 at 12:58 PM


Visibility: N/A

Pressure: 29.91 "Hg

Humidity: 65%

Dew point: 59 °F

Location of WiesbadenLocation

Historic Weather in Wiesbaden — Graph

°F

Wiesbaden temperature yesterday

Maximum temperature yesterday: 75 °F (at 4:58 PM)
Minimum temperature yesterday: 57 °F (at 4:58 AM)
Average temperature yesterday: 66 °F

Past Weeks' High & Low Weather Summary

 TemperatureHumidityPressure
High79 °F (Sep 5, 4:58 PM)100% (Sep 5, 7:58 AM)30.20 "Hg (Sep 5, 7:58 AM)
Low52 °F (Sep 11, 2:58 AM)38% (Sep 9, 4:58 PM)29.86 "Hg (Sep 6, 5:58 PM)
Average64 °F77%30.04 "Hg
* Reported Sep 2 12:58 PM — Sep 17 12:58 PM, Wiesbaden, Weather by CustomWeather, © 2014

Note: Actual official high and low records may vary slightly from our data, if they occured in-between our weather recording intervals... More about our weather records

Advertising

Wiesbaden weather history for previous 24 hours

 ConditionsComfort  
Time TempWeatherWind HumidityBarometerVisibility
12:58 PM
Sep 17
72 °FSunny.6 mph65%29.91 "HgN/A
11:58 AM68 °FSunny.8 mph73%29.93 "HgN/A
10:58 AM66 °FSunny.8 mph76%29.93 "HgN/A
9:58 AM64 °FSunny.10 mph78%29.93 "HgN/A
8:58 AM62 °FSunny.8 mph83%29.94 "HgN/A
7:58 AM59 °FClear.5 mph90%29.94 "HgN/A
6:58 AM57 °FClear.No wind94%29.94 "HgN/A
5:58 AM56 °FClear.No wind94%29.94 "HgN/A
4:58 AM59 °FClear.2 mph88%29.93 "HgN/A
3:58 AM61 °FClear.2 mph88%29.93 "HgN/A
2:58 AM61 °FClear.6 mph86%29.94 "HgN/A
1:58 AM63 °FClear.3 mph83%29.94 "HgN/A
12:58 AM61 °FClear.6 mph88%29.96 "HgN/A
11:58 PM
Sep 16
63 °FClear.5 mph83%29.96 "HgN/A
10:58 PM64 °FClear.2 mph78%29.96 "HgN/A
9:58 PM65 °FClear.5 mph75%29.96 "HgN/A
8:58 PM65 °FClear.7 mph77%29.97 "HgN/A
7:58 PM68 °FSunny.3 mph69%29.96 "HgN/A
6:58 PM72 °FSunny.7 mph64%29.96 "HgN/A
5:58 PM73 °FSunny.7 mph61%29.96 "HgN/A
4:58 PM75 °FPassing clouds.3 mph57%29.96 "HgN/A
3:58 PM74 °FSunny.8 mph60%29.96 "HgN/A
2:58 PM73 °FPassing clouds.3 mph65%29.98 "HgN/A
1:58 PM73 °FPassing clouds.5 mph66%29.98 "HgN/A
Weather by CustomWeather, © 2014

See weather overviewHow to use our weather pages